www.pogodaiklimat.ru

Погода и климат >> Архив погоды >> Украина >> Чаплино


ПОГОДА в Чаплино

  • Прогноз погоды в Чаплино
  • Монитор погоды в Чаплино

АРХИВ ПОГОДЫ в Чаплино

Время (UTC), дата Ветер
(напр.,м/с)
 
Видим.   Явления Облачность Т
(С)
Тd
(С)
f
(%)
Тe
(С)
Тes
(С)
Комфортность P
(гПа)
Po
(гПа)
Тmin
(С)
Tmax
(С)
R
(мм)
R24
(мм)
S
(см)
06 12.06 В 1 20 км 3/0
[Ac trans]
+25.9 +14.2 48 +28 +38 жарко 1012.5 992.6 +15.5
09 12.06 ЮВ 2 20 км 3/0
[Ci fib]
+31.0 +9.5 26 +30 +47 жарко 1012.6 993.0
12 12.06 В 3 20 км 4/0
[Ci]
+32.4 +9.1 24 +31 +42 жарко 1011.9 992.4
15 12.06 В 1 10 км 9/6 930 м
[Cu med, cong Ac As]
+29.2 +11.2 33 +30 +31 жарко 1011.5 991.8
18 12.06 В 1 10 км 9/9 840 м
[Sc]
+26.0 +13.9 47 +28 +28 жарко 1011.9 992.0 +32.8
21 12.06 В 1 10 км 9/0
[Ac trans]
+24.0 +12.5 49 +26 +26 жарко 1012.4 992.3
00 13.06 СВ 1 10 км 9/0
[Ac trans]
+23.0 +13.4 55 +26 +26 жарко 1011.9 991.8
03 13.06 СВ 1 10 км 9/4 600 м
[Sc Ac trans]
+22.0 +13.4 58 +25 +25 комфорт 1011.9 991.7
06 13.06 СВ 1 20 км 3/0
[Ac trans]
+27.1 +15.5 49 +30 +39 душно 1012.1 992.3 +21.4
09 13.06 В 2 20 км 3/0
[Ci fib]
+33.2 +12.0 28 +33 +50 жарко 1012.2 992.7
12 13.06 В 1 20 км 3/3 1000 м
[Cu hum]
+34.0 +13.5 29 +35 +46 очень
жарко
1012.1 992.7
15 13.06 В 2 10 км гроза без осадков 4/4 600 м
[Cb cap]
+31.6 +13.8 34 +33 +35 жарко 1012.7 993.1
18 13.06 В 2 10 км гроза без осадков 10/6 720 м
[Cb cap Ac und]
+25.3 +12.7 46 +27 +27 жарко 1015.2 995.2 +35.3
21 13.06 В 2 10 км {гроза, ливн. осадки} 4/0
[Ac trans Ci fib]
+22.8 +16.2 66 +27 +27 душно 1016.1 995.9
00 14.06 В 2 10 км {гроза, ливн. осадки} ясно +19.0 +15.4 80 +21 +21 комфорт 1017.0 996.5
03 14.06 В 2 10 км ясно +18.2 +14.8 81 +19 +20 1017.8 997.2
06 14.06 В 2 20 км ясно +24.5 +14.6 54 +27 +37 жарко 1018.2 998.1 +17.5 0.0
09 14.06 ЮВ 2 20 км 1/0
[Ac trans]
+28.9 +14.6 42 +31 +48 жарко 1018.3 998.4
12 14.06 ЮВ 1 20 км 3/3 1000 м
[Cu hum]
+29.8 +13.4 37 +31 +43 жарко 1017.8 998.0
15 14.06 В 1 20 км 3/3 1000 м
[Cu hum]
+29.6 +15.1 41 +32 +35 душно 1016.5 996.7
18 14.06 штиль 0 10 км ясно +24.1 +13.7 52 +26 +26 жарко 1017.0 996.8 +30.5
21 14.06 ЮВ 1 10 км ясно +19.9 +8.9 49 +22 +22 комфорт 1017.6 997.1
00 15.06 штиль 0 10 км ясно +15.3 +8.4 63 +15 +15 1017.3 996.5
03 15.06 штиль 0 10 км ясно +15.0 +8.7 66 +15 +16 1016.9 996.1
06 15.06 ЮВ 1 20 км 9/0
[Ci fib]
+24.6 +10.6 41 +26 +35 жарко 1015.9 995.8 +13.6
09 15.06 СВ 1 20 км 1/0
[Ci fib]
+28.6 +9.2 30 +29 +49 жарко 1015.4 995.5
12 15.06 СВ 1 20 км 1/0
[Ci fib]
+31.4 +10.1 27 +31 +47 жарко 1013.1 993.5
15 15.06 С 1 20 км ясно +31.6 +11.5 29 +32 +36 жарко 1011.9 992.3
18 15.06 штиль 0 10 км ясно +25.8 +14.5 50 +28 +28 жарко 1012.1 992.2 +32.1
21 15.06 штиль 0 10 км ясно +21.2 +13.6 62 +24 +24 комфорт 1012.0 991.8
00 16.06 штиль 0 10 км ясно +19.1 +14.1 73 +20 +20 1011.9 991.5
03 16.06 штиль 0 10 км ясно +19.4 +15.0 76 +21 +22 комфорт 1011.1 990.8
06 16.06 С 1 10 км ясно +27.8 +17.0 52 +32 +43 душно 1010.8 991.0 +18.4
09 16.06 С 2 20 км 3/3 1000 м
[Cu hum]
+30.4 +14.8 39 +33 +45 душно 1010.3 990.7
12 16.06 СВ 2 20 км 3/1 1000 м
[Cu hum Ci fib]
+31.8 +11.3 28 +32 +44 жарко 1009.5 990.0
15 16.06 С 2 20 км 1/1 1000 м
[Cu hum]
+30.1 +11.9 33 +31 +34 жарко 1009.3 989.7
18 16.06 СВ 2 10 км 4/4 600 м
[Sc]
+26.0 +15.9 54 +29 +29 душно 1010.3 990.4 +32.1
21 16.06 В 2 10 км ясно +21.4 +16.5 74 +25 +25 комфорт 1011.9 991.7
00 17.06 В 1 10 км ясно +18.2 +15.8 86 +20 +20 1013.2 992.7
03 17.06 СВ 1 10 км ясно +16.7 +15.1 90 +18 +19 1014.1 993.5
06 17.06 В 2 20 км ясно +23.0 +11.7 49 +25 +35 комфорт 1014.8 994.6 +16.2
09 17.06 В 2 20 км ясно +27.1 +9.2 32 +27 +45 жарко 1014.5 994.6
12 17.06 В 3 20 км ясно +29.0 +9.1 29 +29 +40 жарко 1013.7 993.9
15 17.06 В 2 20 км 3/0
[Ac trans]
+28.6 +10.0 31 +29 +32 жарко 1013.2 993.4
18 17.06 штиль 0 10 км ясно +22.9 +12.6 52 +26 +26 жарко 1014.4 994.2 +29.6
21 17.06 штиль 0 10 км 4/0
[Ac trans]
+18.7 +10.3 58 +19 +19 1015.2 994.7
00 18.06 СВ 1 10 км ясно +17.4 +10.3 63 +18 +18 1015.5 994.9
03 18.06 штиль 0 10 км ясно +17.0 +10.2 64 +17 +18 1015.6 995.0
06 18.06 С 1 20 км ясно +25.6 +12.9 45 +27 +39 жарко 1015.1 995.1 +15.2
09 18.06 СВ 2 20 км 3/3 1000 м
[Cu hum]
+29.6 +13.6 38 +31 +44 жарко 1014.3 994.6
12 18.06 СВ 2 20 км 5/5 1000 м
[Cu med, cong]
+30.8 +13.6 35 +32 +39 жарко 1013.4 993.8
15 18.06 СВ 2 20 км 4/4 1000 м
[Cu med, cong]
+30.4 +13.4 35 +32 +34 жарко 1012.4 992.7
18 18.06 штиль 0 10 км ясно +26.3 +14.1 47 +29 +29 жарко 1012.6 992.7 +31.7
21 18.06 штиль 0 10 км ясно +21.3 +12.5 57 +24 +24 комфорт 1013.7 993.4
00 19.06 штиль 0 10 км ясно +19.4 +12.5 64 +21 +21 комфорт 1013.5 993.1
03 19.06 В 1 10 км ясно +19.4 +15.0 76 +22 +23 комфорт 1013.1 992.7

 

Местоположение метеостанции Чаплино (Днепропетровская область, Украина): широта 48.13 долгота 36.23 высота над уровнем моря 175 м.

В архиве по умолчанию представлена погода в Чаплино за последнюю неделю. Архивные данные за месяц целиком и за предыдущие месяцы, начиная с января 2011 года, Вы можете получить, выбрав интересующий диапазон дат из раскрывающегося списка и нажав кнопку "Ввод!".


*Определитесь, кто Вы:
робот инопланетянин человек

Внимание! Время в таблицах - всемирное. Для получения местного времени необходимо прибавить поправку, которая равна 2 ч.

Смотрите также архив погоды в соседних городах и на ближайших метеорологических станциях:

Погода в Гуляйполе (Запорожская область, Украина) (51 км)
Погода в Павлограде (Днепропетровская область, Украина) (53 км)
Погода в Александрополе (Днепропетровская область, Украина) (57 км)
Погода в Синельниково (Днепропетровская область, Украина) (62 км)
Погода в Лозовой (Харьковская область, Украина) (86 км)
Погода в Кирилловке (Запорожская область, Украина) (89 км)
Погода в Запорожье (Запорожская область, Украина) (97 км)
Погода в Волновахе (Донецкая область, Украина) (101 км)
Погода в Губинихе (Днепропетровская область, Украина) (104 км)
Погода в Днепре (Днепропетровская область, Украина) (107 км)

Пояснения к столбцам:

Ветер - указаны скорость ветра в м/с - средняя за 10 мин, порывы в срок и между сроками (в фигурных скобках) и направление, откуда дует ветер: С - северный, СВ - северо-восточный, В - восточный, ЮВ - юго-восточный, Ю - южный, ЮЗ - юго-западный, З - западный, СЗ - северо-западный.
Видимость - горизонтальная дальность видимости в метрах или километрах. При видимости от 1 до 10 км при отсутствии осадков обычно наблюдается дымка, при ухудшении видимости до 1 км и менее - туман. В сухую погоду видимость может ухудшаться дымом, пылью или мглою.
Явления - указаны атмосферные явления, наблюдавшиеся в срок или в последний час перед сроком; фигурными скобками обозначены явления, наблюдавшиеся между сроками (за 1-3 часа до срока); квадратными скобками обозначены град или гололедные отложения с указанием их диаметра в мм.
Облачность - указаны через наклонную черту общая и нижняя облачность в баллах и высота нижней границы облаков в метрах; квадратными скобками обозначены формы облаков: Ci - перистые, Cs - перисто-слоистые, Cc - перисто-кучевые, Ac - высококучевые, As - высокослоистые, Sc - слоисто-кучевые, Ns - слоисто-дождевые, Cu - кучевые, Cb - кучево-дождевые. Подробнее классификацию облаков см. в Атласе облаков (PDF).
T - Температура воздуха - температура, измеренная на высоте 2 м над землей.
Td - Температура точки росы - температура, при понижении до которой содержащийся в воздухе водяной пар достигнет насыщения.
f - Относительная влажность воздуха - влажноcть воздуха, измеренная на высоте 2 м над землей.
Te - Эффективная температура - температура, которую ощущает одетый по сезону человек в тени. Характеристика душности погоды. При расчете учитывается влияние влажности воздуха и скорости ветра на теплоощущения человека.
Tes - Эффективная температура на солнце - температура, которую ощущает человек, с поправкой на солнечный нагрев. Характеристика знойности погоды. Зависит от высоты солнца над горизонтом, облачности и скорости ветра. Ночью, в пасмурную погоду, а также при ветре 12 м/с и более поправка равна нулю.
P - Атмосферное давление - приведенное к уровню моря атмосферное давление.
Po - Атмосферное давление - измеренное на уровне метеостанции атмосферное давление.
Tmin - Минимальная температура - минимум температуры воздуха на высоте 2 м над землей.
Tmax - Максимальная температура - максимум температуры воздуха на высоте 2 м над землей.
R - Количество осадков - Количество выпавших осадков за период времени, мм. При наведении курсора мыши на число - период времени, за который выпало указанное количество осадков.
R24 - Количество осадков - Количество выпавших осадков за 24 часа, мм.
S - Снежный покров - Высота снежного покрова, см. При наведении курсора мыши на число - состояние снежного покрова и степень покрытия местности в баллах.